INMARSAT 5-F4

Last updated on Sat Dec 13 2025 00:02:49 GMT+0000 (Coordinated Universal Time)

1 42698U 17025A 25345.93083718 .00000084 00000+0 00000+0 0 9992 2 42698 0.0177 0.8770 0000274 300.2988 171.3176 1.00270350 31403
UTC large
Height (km)
Speed (km/s)
/
Latitude / Longitude
Inclination (degrees)
Orbital Period (minutes)
Azimuth
Elevation
Range (km)
Doppler Factor

Next 0 passes for location: London (51.5072 / 0.1276)

Sorry there are no passes over London.